When you browse on this site, cookies collect data to enhance your experience and personalize the content and advertising you see.
Visit our Privacy Policy to learn more. By continuing to use the site, you agree to this use of cookies and data.
  • In Schweiz
  • Länderverzeichnis
  • Für 7 Tage
  • Wassertemperatur
  • Satellitenkarten
  • Wetterkarte
  • Widgets
  • user-avatar
    Anmelden

    Stündliche Wetter Yanmen

    Heute, 16 Juni, Sonntag

    Zeit Temperatur Niederschläge Wind Luftdruck Luftfeuchtigkeit
    00:00 +25°C° 0.1 mm 1 m/S 732 mmHg 83%
    01:00 +25°C° 0.1 mm 1 m/S 731 mmHg 85%
    02:00 +24°C° 0.1 mm 1 m/S 731 mmHg 88%
    03:00 +24°C° 0.1 mm 1 m/S 731 mmHg 90%
    04:00 +23°C° 0.1 mm 1 m/S 731 mmHg 93%
    05:00 +23°C° 0.8 mm 1 m/S 731 mmHg 94%
    06:00 +23°C° 0.8 mm 1 m/S 731 mmHg 95%
    07:00 +23°C° 0.8 mm 1 m/S 732 mmHg 96%
    08:00 +23°C° 1.6 mm 1 m/S 732 mmHg 97%
    09:00 +23°C° 1.6 mm 1 m/S 732 mmHg 97%
    10:00 +23°C° 1.6 mm 2 m/S 732 mmHg 97%
    11:00 +21°C° 4.9 mm 2 m/S 732 mmHg 98%
    12:00 +22°C° 4.9 mm 1 m/S 732 mmHg 98%
    13:00 +22°C° 4.9 mm 1 m/S 732 mmHg 98%
    14:00 +22°C° 1.8 mm 1 m/S 732 mmHg 98%
    15:00 +21°C° 1.8 mm 2 m/S 732 mmHg 98%
    16:00 +21°C° 1.8 mm 2 m/S 731 mmHg 98%
    17:00 +22°C° 0.2 mm 1 m/S 732 mmHg 98%
    18:00 +22°C° 0.2 mm 1 m/S 732 mmHg 98%
    19:00 +22°C° 0.2 mm 1 m/S 732 mmHg 98%
    20:00 +22°C° 1.2 mm 1 m/S 732 mmHg 98%
    21:00 +22°C° 1.2 mm 1 m/S 733 mmHg 98%
    22:00 +22°C° 1.2 mm 1 m/S 733 mmHg 98%
    23:00 +22°C° 1.5 mm 1 m/S 733 mmHg 98%

    Morgen, 17 Juni, Montag

    Zeit Temperatur Niederschläge Wind Luftdruck Luftfeuchtigkeit
    00:00 +22°C° 1.5 mm 1 m/S 732 mmHg 99%
    01:00 +22°C° 1.5 mm 1 m/S 732 mmHg 99%
    02:00 +22°C° 2.7 mm 1 m/S 732 mmHg 99%
    03:00 +22°C° 2.7 mm 1 m/S 732 mmHg 99%
    04:00 +22°C° 2.7 mm 1 m/S 731 mmHg 99%
    05:00 +22°C° 3.6 mm 1 m/S 732 mmHg 99%
    06:00 +22°C° 3.6 mm 1 m/S 732 mmHg 99%
    07:00 +22°C° 3.6 mm 1 m/S 732 mmHg 99%
    08:00 +22°C° 3.8 mm 1 m/S 732 mmHg 99%
    09:00 +23°C° 3.8 mm 1 m/S 732 mmHg 99%
    10:00 +23°C° 3.8 mm 1 m/S 732 mmHg 99%
    11:00 +23°C° 1.3 mm 1 m/S 732 mmHg 98%
    12:00 +23°C° 1.3 mm 1 m/S 732 mmHg 98%
    13:00 +23°C° 1.3 mm 1 m/S 732 mmHg 98%
    14:00 +23°C° 1.3 mm 1 m/S 731 mmHg 98%
    15:00 +23°C° 1.3 mm 1 m/S 731 mmHg 98%
    16:00 +23°C° 1.3 mm 1 m/S 731 mmHg 99%
    17:00 +23°C° 1.3 mm 1 m/S 731 mmHg 99%
    18:00 +23°C° 1.3 mm 1 m/S 732 mmHg 99%
    19:00 +23°C° 1.3 mm 1 m/S 732 mmHg 99%
    20:00 +23°C° 0.8 mm 1 m/S 733 mmHg 99%
    21:00 +23°C° 0.8 mm 1 m/S 733 mmHg 99%
    22:00 +23°C° 0.8 mm 1 m/S 733 mmHg 99%
    23:00 +21°C° 0.9 mm 0 m/S 733 mmHg 99%

    übermorgen, 18 Juni, Dienstag

    Zeit Temperatur Niederschläge Wind Luftdruck Luftfeuchtigkeit
    00:00 +21°C° 0.9 mm 0 m/S 733 mmHg 99%
    01:00 +21°C° 0.9 mm 0 m/S 732 mmHg 99%
    02:00 +21°C° 0.6 mm 0 m/S 732 mmHg 99%
    03:00 +21°C° 0.6 mm 0 m/S 732 mmHg 99%
    04:00 +21°C° 0.6 mm 0 m/S 732 mmHg 99%
    05:00 +21°C° 0.7 mm 0 m/S 732 mmHg 99%
    06:00 +21°C° 0.7 mm 0 m/S 732 mmHg 98%
    07:00 +22°C° 0.7 mm 0 m/S 732 mmHg 98%
    08:00 +22°C° 0.3 mm 0 m/S 733 mmHg 98%
    09:00 +22°C° 0.3 mm 0 m/S 733 mmHg 97%
    10:00 +23°C° 0.3 mm 0 m/S 733 mmHg 97%
    11:00 +23°C° 0 mm 0 m/S 733 mmHg 95%
    12:00 +26°C° 0 mm 1 m/S 732 mmHg 94%
    13:00 +27°C° 0 mm 1 m/S 732 mmHg 92%
    14:00 +27°C° 0 mm 1 m/S 732 mmHg 91%
    15:00 +27°C° 0 mm 1 m/S 731 mmHg 89%
    16:00 +28°C° 0 mm 1 m/S 731 mmHg 88%
    17:00 +27°C° 0.1 mm 1 m/S 731 mmHg 91%
    18:00 +26°C° 0.1 mm 1 m/S 731 mmHg 94%
    19:00 +25°C° 0.1 mm 1 m/S 732 mmHg 97%
    20:00 +25°C° 0.1 mm 1 m/S 732 mmHg 97%
    21:00 +23°C° 0.1 mm 0 m/S 732 mmHg 97%
    22:00 +23°C° 0.1 mm 0 m/S 732 mmHg 97%
    23:00 +23°C° 0.8 mm 0 m/S 732 mmHg 97%

    19 Juni, Mittwoch

    Zeit Temperatur Niederschläge Wind Luftdruck Luftfeuchtigkeit
    00:00 +23°C° 0.8 mm 0 m/S 732 mmHg 98%
    01:00 +23°C° 0.8 mm 0 m/S 732 mmHg 98%
    02:00 +23°C° 0.3 mm 0 m/S 731 mmHg 98%
    03:00 +22°C° 0.3 mm 0 m/S 731 mmHg 98%
    04:00 +22°C° 0.3 mm 0 m/S 731 mmHg 98%
    05:00 +23°C° 0.1 mm 0 m/S 731 mmHg 98%
    06:00 +23°C° 0.1 mm 0 m/S 731 mmHg 98%
    07:00 +23°C° 0.1 mm 0 m/S 732 mmHg 97%
    08:00 +25°C° 0 mm 0 m/S 732 mmHg 93%
    09:00 +26°C° 0 mm 0 m/S 732 mmHg 89%
    10:00 +28°C° 0 mm 0 m/S 732 mmHg 85%
    11:00 +28°C° 0.3 mm 0 m/S 731 mmHg 83%
    12:00 +29°C° 0.3 mm 0 m/S 731 mmHg 80%
    13:00 +30°C° 0.3 mm 0 m/S 730 mmHg 77%
    14:00 +29°C° 1.1 mm 0 m/S 729 mmHg 81%
    15:00 +29°C° 1.1 mm 0 m/S 729 mmHg 84%
    16:00 +31°C° 1.1 mm 1 m/S 728 mmHg 87%
    17:00 +30°C° 1.1 mm 1 m/S 729 mmHg 89%
    18:00 +27°C° 1.1 mm 0 m/S 729 mmHg 91%
    19:00 +26°C° 1.1 mm 0 m/S 729 mmHg 92%
    20:00 +26°C° 0.6 mm 0 m/S 730 mmHg 93%
    21:00 +25°C° 0.6 mm 0 m/S 730 mmHg 93%
    22:00 +25°C° 0.6 mm 0 m/S 731 mmHg 94%
    23:00 +25°C° 0.2 mm 0 m/S 730 mmHg 95%

    20 Juni, Donnerstag

    Zeit Temperatur Niederschläge Wind Luftdruck Luftfeuchtigkeit
    00:00 +25°C° 0.2 mm 0 m/S 730 mmHg 95%
    01:00 +26°C° 0.2 mm 1 m/S 730 mmHg 96%
    02:00 +26°C° 0.1 mm 1 m/S 730 mmHg 96%
    03:00 +26°C° 0.1 mm 1 m/S 729 mmHg 96%
    04:00 +24°C° 0.1 mm 0 m/S 729 mmHg 96%
    05:00 +27°C° 0 mm 1 m/S 730 mmHg 94%
    06:00 +28°C° 0 mm 1 m/S 730 mmHg 92%
    07:00 +29°C° 0 mm 1 m/S 730 mmHg 89%
    08:00 +30°C° 0 mm 2 m/S 730 mmHg 82%
    09:00 +33°C° 0 mm 3 m/S 730 mmHg 74%
    10:00 +34°C° 0 mm 3 m/S 730 mmHg 67%
    11:00 +35°C° 0 mm 3 m/S 729 mmHg 64%
    12:00 +36°C° 0 mm 4 m/S 729 mmHg 62%
    13:00 +36°C° 0 mm 4 m/S 728 mmHg 59%
    14:00 +36°C° 0 mm 3 m/S 728 mmHg 62%
    15:00 +36°C° 0 mm 3 m/S 727 mmHg 65%
    16:00 +36°C° 0 mm 2 m/S 727 mmHg 67%
    17:00 +34°C° 0 mm 2 m/S 727 mmHg 72%
    18:00 +32°C° 0 mm 2 m/S 727 mmHg 77%
    19:00 +30°C° 0 mm 2 m/S 728 mmHg 82%
    20:00 +30°C° 0.1 mm 2 m/S 728 mmHg 84%
    21:00 +29°C° 0.1 mm 2 m/S 728 mmHg 86%
    22:00 +28°C° 0.1 mm 1 m/S 729 mmHg 88%
    23:00 +28°C° 0.1 mm 1 m/S 729 mmHg 89%

    21 Juni, Freitag

    Zeit Temperatur Niederschläge Wind Luftdruck Luftfeuchtigkeit
    00:00 +28°C° 0.1 mm 1 m/S 728 mmHg 90%
    01:00 +27°C° 0.1 mm 1 m/S 728 mmHg 92%
    02:00 +27°C° 0.8 mm 1 m/S 728 mmHg 93%
    03:00 +27°C° 0.8 mm 1 m/S 728 mmHg 94%
    04:00 +27°C° 0.8 mm 1 m/S 728 mmHg 95%
    05:00 +27°C° 1.6 mm 1 m/S 729 mmHg 96%
    06:00 +27°C° 1.6 mm 1 m/S 729 mmHg 96%
    07:00 +27°C° 1.6 mm 1 m/S 729 mmHg 96%
    08:00 +28°C° 0.3 mm 1 m/S 729 mmHg 93%
    09:00 +29°C° 0.3 mm 1 m/S 730 mmHg 90%
    10:00 +29°C° 0.3 mm 1 m/S 730 mmHg 88%
    11:00 +29°C° 0.7 mm 2 m/S 729 mmHg 88%
    12:00 +29°C° 0.7 mm 3 m/S 729 mmHg 89%
    13:00 +28°C° 0.7 mm 3 m/S 729 mmHg 90%
    14:00 +27°C° 0.2 mm 3 m/S 729 mmHg 90%
    15:00 +26°C° 0.2 mm 3 m/S 728 mmHg 89%
    16:00 +25°C° 0.2 mm 3 m/S 728 mmHg 88%
    17:00 +24°C° 1 mm 3 m/S 729 mmHg 91%
    18:00 +23°C° 1 mm 2 m/S 729 mmHg 94%
    19:00 +23°C° 1 mm 2 m/S 729 mmHg 98%
    20:00 +23°C° 1.1 mm 2 m/S 730 mmHg 98%
    21:00 +23°C° 1.1 mm 2 m/S 730 mmHg 98%
    22:00 +23°C° 1.1 mm 1 m/S 731 mmHg 98%
    23:00 +23°C° 0.6 mm 1 m/S 730 mmHg 98%
    Mehr zeigen